Location: Ch�ze
(42.9000°N, 0.0333°W)
Time: 23:45:06
(UTC+00:00)

COSMO-SKYMED 1 - Pass Details

Date: 24 January 2021
Orbit: 621 x 623 km, 97.9° (Epoch: 24 February)

Event Time Altitude Azimuth Distance (km) Brightness Sun altitude
Rises 17:32:37 0° 21° (NNE) 2,912 5.6 -5.9°
Reaches altitude 10° 17:34:58 10° 30° (NNE) 2,000 4.7 -6.3°
Maximum altitude 17:38:59 36° 97° (E) 993 3.2 -7.0°
Drops below altitude 10° 17:42:58 10° 165° (SSE) 1,984 5.2 -7.7°
Sets 17:45:17 0° 174° (S) 2,885 6.2 -8.1°
